Temperature
19 18 18 18 18 17 17 17 17 16 16 16 16 16 16 16 16 16 15 15 15 15 15 15 15 15 15 15 15 15 15 15 15 15 15 15 15 15 15 15 15 15 15
19 18 18 18 18 17 17 17 16 16 16 16 16 16 15 15 15 15 15 15 15 15 15 15 15 15 15 15 15 15 15 15 15 14 14 15 15 15 14 14 14 14 14
18 18 18 18 17 17 17 17 16 16 16 16 15 15 15 15 15 15 15 15 15 15 15 15 15 15 15 15 15 15 15 14 14 14 14 14 14 14 14 14 14 14 14
18 18 18 18 17 17 17 16 16 16 16 15 15 15 15 15 15 15 14 15 15 15 14 14 14 15 15 15 14 14 14 14 14 14 14 14 14 14 14 14 14 14 14
18 18 17 17 17 17 17 16 16 16 15 15 15 15 15 15 14 14 14 14 14 14 14 14 14 14 14 14 14 14 14 13 13 13 13 13 13 13 13 13 13 13 13
18 17 17 17 17 16 16 16 16 15 15 15 15 15 14 14 14 14 14 14 14 14 14 14 14 14 14 14 14 14 14 13 13 13 13 13 13 13 13 13 13 13 13
17 17 17 16 16 16 16 16 15 15 15 15 15 14 14 14 14 14 14 14 14 14 13 13 13 13 13 13 13 13 13 13 13 13 13 13 12 13 12 12 12 12 12
17 17 17 16 16 16 15 15 15 15 15 14 14 14 14 14 14 14 13 13 13 13 13 13 13 13 13 13 13 13 13 12 12 12 12 12 12 12 12 12 12 12 12
17 17 16 16 16 15 15 15 15 15 14 14 14 14 14 14 14 13 13 13 13 13 13 13 12 12 12 12 12 12 12 12 12 12 12 12 12 12 12 12 12 12 11
16 16 16 16 15 15 15 15 15 14 14 14 14 14 13 13 13 13 13 13 12 12 12 12 12 12 12 12 12 12 12 12 12 12 12 11 11 11 11 11 11 11 11
16 15 15 15 15 15 14 14 14 14 14 13 13 13 13 13 12 12 12 12 12 12 12 12 12 11 11 11 11 11 11 11 11 11 11 11 11 11 11 11 11 11 11
15 15 15 15 15 14 14 14 14 13 13 13 13 13 12 12 12 12 11 11 11 11 11 11 11 11 11 11 11 11 11 11 11 11 11 11 11 11 11 11 11 11 11
15 15 14 14 14 14 14 14 13 13 13 13 12 12 12 12 11 11 11 11 11 11 11 11 11 11 11 11 10 10 10 10 10 10 10 10 10 10 10 10 10 10 10
14 14 14 14 14 13 13 13 13 13 13 12 12 12 11 11 11 11 11 11 11 11 10 10 10 10 10 10 10 10 10 10 10 10 10 10 10 10 10 10 10 10 10
14 13 13 13 13 13 13 12 12 12 12 12 12 11 11 11 11 11 11 11 10 10 10 10 10 10 10 10 10 10 10 10 10 9 9 9 9 9 9 9 10 10 10
13 13 13 12 12 12 12 12 12 12 12 12 11 11 11 11 10 10 10 10 10 10 10 10 9 9 9 9 9 9 9 9 9 9 9 9 9 9 9 9 9 9 9
13 13 12 12 12 12 12 12 12 12 11 11 11 11 11 10 10 10 10 10 9 9 9 9 9 9 9 9 9 9 9 9 9 8 8 8 8 8 8 8 8 8 8
12 12 12 12 12 12 11 11 11 11 11 11 11 11 11 10 10 10 10 9 9 9 9 9 9 9 9 8 8 8 8 8 8 8 8 8 8 8 8 8 8 8 7
12 12 12 12 12 11 11 11 11 11 11 11 11 11 10 10 10 9 9 9 9 9 9 8 8 8 8 8 8 8 8 8 8 8 8 7 7 7 7 7 7 7 7
12 12 12 11 11 11 11 11 11 11 10 10 10 10 10 10 9 9 9 9 9 8 8 8 8 8 8 8 8 8 7 7 7 7 7 7 7 7 7 7 7 7 7
12 11 11 11 11 11 11 10 10 10 10 10 10 10 10 9 9 9 9 8 8 8 8 8 8 8 8 7 7 7 7 7 7 7 7 7 7 7 7 6 6 6 6
11 11 11 11 11 11 10 10 10 10 10 10 10 9 9 9 9 8 8 8 8 8 8 7 7 7 7 7 7 7 7 7 6 6 6 6 6 6 6 6 6 6 6
11 11 11 11 10 10 10 10 10 10 10 9 9 9 9 9 9 8 8 8 8 8 7 7 7 7 7 7 7 7 6 6 6 6 6 6 6 6 6 6 6 6 6
11 11 11 10 10 10 10 10 10 9 9 9 9 9 9 9 8 8 8 8 7 7 7 7 7 7 7 7 6 6 6 6 6 6 6 6 6 6 6 6 6 6 6
11 10 10 10 10 10 10 10 9 9 9 9 9 8 8 8 8 8 7 7 7 7 7 7 7 7 6 6 6 6 6 6 6 6 6 6 6 5 5 5 5 6 5
10 10 10 10 10 10 9 9 9 9 9 9 8 8 8 8 7 7 7 7 7 7 7 6 6 6 6 6 6 6 6 6 6 5 5 5 5 5 5 5 5 5 5
Wind_Speed
4 3 3 2 2 2 2 1 1 1 1 1 1 1 0 1 1 1 1 1 1 1 1 1 1 1 1 0 1 2 2 2 2 1 1 1 1 1 2 1 1 0 0
3 3 3 2 2 2 1 1 1 1 0 1 1 1 0 1 1 1 1 1 1 0 1 1 1 1 1 1 1 2 2 2 2 2 1 1 1 1 2 1 1 0 0
4 3 2 2 2 2 2 1 1 0 0 0 1 1 1 0 0 0 0 0 0 0 0 0 0 1 1 1 1 1 1 1 1 2 1 1 1 1 1 1 1 1 1
5 4 3 2 2 2 2 1 1 1 0 0 0 1 1 1 1 1 0 0 1 1 1 1 1 1 2 2 1 2 2 2 2 2 1 0 0 1 1 1 1 1 1
5 3 3 2 2 2 1 1 0 0 0 0 0 1 1 0 1 1 1 0 1 1 1 1 1 1 2 2 2 2 3 2 2 2 1 0 1 1 1 1 1 2 1
4 3 2 2 2 1 1 1 1 1 1 1 1 1 2 2 2 1 0 1 1 1 1 1 1 1 0 1 3 3 4 4 3 3 2 2 3 2 2 2 1 1 1
3 2 2 3 2 1 1 2 1 0 1 1 1 1 2 2 2 2 2 1 1 1 1 1 1 0 1 1 1 2 2 3 4 4 4 4 3 3 3 2 2 2 3
2 2 2 2 2 2 2 1 1 1 1 0 1 1 1 2 3 3 2 1 1 1 1 1 1 1 0 2 2 1 0 1 2 3 4 5 5 4 4 4 3 3 2
2 2 2 2 3 2 2 2 1 1 0 1 1 0 1 2 2 2 2 1 1 1 1 1 0 1 1 2 2 1 0 1 1 2 3 3 3 3 3 2 2 2 2
1 1 1 1 2 2 2 2 1 1 0 0 1 1 1 2 2 2 2 1 0 1 2 2 2 1 0 1 1 1 1 2 2 2 2 3 2 2 2 3 4 3 2
1 2 2 1 2 2 1 1 1 1 1 1 2 2 2 2 2 2 2 1 1 0 1 1 2 2 1 1 1 2 3 2 1 1 2 2 2 2 2 2 3 4 4
2 3 2 1 2 2 2 2 2 2 2 2 2 3 3 3 3 2 2 1 1 1 1 2 2 2 2 2 1 2 1 0 0 1 1 2 2 2 2 3 3 4 5
3 2 2 2 2 2 2 2 1 2 1 1 1 1 2 3 3 4 2 1 1 1 1 1 2 2 1 1 1 1 1 1 0 1 2 2 2 3 2 2 2 2 3
3 2 2 3 2 2 2 1 1 1 1 1 1 1 2 2 2 2 2 1 1 1 1 2 3 3 3 3 2 2 1 1 1 1 2 2 2 2 2 1 1 2 2
3 2 2 2 2 1 1 0 1 1 2 2 2 2 1 2 3 2 0 1 1 1 1 1 1 2 2 2 2 2 1 1 0 1 1 1 1 1 2 1 1 1 1
3 2 1 1 1 1 1 2 3 1 1 1 2 2 1 2 2 1 1 1 1 1 1 0 1 1 1 2 2 2 1 1 1 1 1 1 1 2 2 2 1 1 2
2 2 1 1 1 1 1 1 1 3 4 3 1 1 1 1 1 1 1 1 2 2 1 1 2 2 2 2 2 2 2 2 1 2 2 1 2 2 2 2 2 2 3
2 2 2 2 2 2 2 2 1 1 2 2 3 2 1 0 1 1 1 2 2 1 0 2 2 3 3 3 2 2 2 2 2 2 2 2 2 2 2 2 2 3 3
2 2 2 2 2 1 1 1 1 2 2 2 2 2 2 1 1 1 2 0 1 1 2 2 3 3 3 3 3 3 3 2 2 2 2 2 2 2 2 3 3 4 4
1 2 2 2 1 1 1 1 1 2 2 2 2 2 1 1 1 1 1 1 2 2 3 3 3 3 3 3 3 3 3 3 3 3 3 3 3 3 3 3 3 3 4
1 2 2 2 1 1 1 2 2 2 3 3 3 3 3 2 2 2 2 2 2 3 3 3 3 3 3 3 3 3 4 3 3 3 3 3 3 3 3 3 4 4 4
2 2 2 2 2 2 3 3 3 3 3 4 3 2 3 2 2 3 3 3 3 3 3 3 3 3 3 3 3 4 4 4 3 3 3 4 3 4 4 4 4 4 4
3 3 2 2 2 3 3 3 3 3 3 4 3 2 2 2 3 3 3 3 3 3 3 3 3 3 3 3 4 4 4 4 4 4 4 4 4 4 4 4 5 5 5
3 3 3 2 2 2 3 3 3 3 3 3 3 3 3 3 3 4 3 3 3 3 3 3 4 4 5 4 4 4 4 5 5 5 5 5 5 5 4 5 5 6 5
3 3 3 3 3 3 3 3 3 3 3 3 3 3 3 3 3 3 3 3 3 3 4 4 4 4 6 6 5 5 5 6 5 5 4 4 5 5 5 5 5 5 5
3 3 3 3 3 3 3 3 4 4 4 3 3 3 3 3 3 3 3 3 3 4 4 4 5 6 6 6 6 6 6 6 6 5 4 4 4 4 5 4 6 5 5
Wind_Direction
164 160 150 156 149 139 151 169 184 193 169 147 152 122 52 18 45 71 51 48 60 14 356 26 349 14 89 112 152 154 156 165 191 262 309 326 357 351 351 354 297 240 202
155 144 147 140 137 144 162 183 165 194 205 180 158 150 160 23 34 82 58 52 93 341 325 357 341 68 83 100 131 146 155 172 177 203 297 322 305 306 321 323 340 74 216
142 139 139 145 154 169 179 182 166 159 347 305 129 163 225 235 83 116 130 29 354 314 318 235 259 120 112 125 142 145 150 142 156 173 233 277 294 340 353 343 353 341 306
143 148 160 173 181 184 172 179 199 191 176 305 270 223 225 215 193 188 141 60 322 329 327 271 227 181 198 182 169 165 149 134 139 152 187 278 307 338 356 332 334 333 306
140 152 176 170 155 138 140 166 169 159 213 128 40 357 332 270 224 197 191 222 269 300 321 312 270 178 176 172 173 174 161 156 156 158 172 209 283 293 284 271 270 305 304
142 160 157 139 143 147 153 121 87 56 45 58 33 5 347 325 340 319 251 212 252 266 288 306 320 325 104 136 151 160 164 173 183 184 198 213 240 244 253 246 236 287 291
135 146 160 158 160 173 169 131 130 102 56 43 9 12 344 327 352 359 12 47 257 251 259 288 313 356 80 103 118 135 164 180 185 193 207 224 230 224 223 234 230 233 251
135 150 162 160 161 154 138 138 146 147 141 311 341 338 344 338 5 19 27 45 43 288 258 245 238 281 237 138 124 93 73 251 229 218 221 233 235 231 221 225 233 236 256
144 162 169 170 167 156 159 180 178 162 182 273 300 314 318 310 343 20 56 84 41 354 356 10 243 254 250 134 124 124 355 320 308 258 243 248 248 238 214 203 210 230 263
167 161 139 153 157 168 178 172 155 148 210 344 331 321 317 322 349 32 74 112 60 332 343 353 349 330 313 122 146 169 236 287 305 322 330 324 302 282 228 209 205 210 233
143 118 118 141 144 137 121 109 114 101 76 34 3 349 344 341 4 30 66 123 173 258 313 326 329 336 323 283 219 216 233 253 264 280 303 309 305 284 264 241 217 210 218
104 107 114 119 122 105 105 88 91 94 77 39 23 4 360 355 4 1 16 48 93 131 284 298 309 325 322 301 256 229 226 225 266 304 305 301 295 281 272 264 243 236 235
107 112 116 98 78 90 111 109 90 82 77 38 19 352 344 351 354 355 352 0 69 70 318 326 344 359 2 8 54 91 102 111 123 306 296 294 291 290 293 295 290 260 265
118 118 121 107 84 68 75 95 111 117 89 40 342 314 317 329 332 341 355 5 18 22 359 3 28 39 36 31 40 52 70 109 131 271 298 307 323 338 333 317 303 304 293
118 110 113 121 126 96 61 80 151 199 181 183 227 239 250 290 293 284 282 322 288 291 35 39 34 28 22 14 9 11 13 14 351 292 275 296 327 332 324 325 305 317 297
123 123 131 143 136 131 98 28 25 28 30 179 184 189 232 251 272 294 288 264 311 91 107 84 326 333 321 316 321 328 334 330 309 286 279 284 301 310 319 326 319 303 293
141 149 150 167 177 180 182 175 332 357 14 14 349 214 220 226 210 195 140 80 69 110 100 294 290 288 289 285 284 284 287 295 287 275 274 279 285 294 301 309 315 312 305
160 161 164 191 202 204 210 212 203 230 304 326 339 334 334 316 186 163 134 89 49 54 276 274 283 283 280 272 270 273 276 283 278 273 275 275 272 280 290 296 299 296 293
180 183 180 187 196 200 209 222 225 227 245 280 314 330 339 350 64 90 126 105 270 274 273 275 279 281 282 279 275 270 265 265 269 267 265 268 267 270 277 285 288 283 284
202 201 171 181 196 183 201 243 256 254 250 255 264 275 299 8 341 312 274 259 259 265 267 273 279 279 276 278 282 279 274 270 272 270 270 270 267 263 268 276 281 283 282
193 195 177 182 197 206 216 233 240 242 246 252 258 258 225 230 251 264 264 264 263 266 267 268 274 277 275 277 280 277 275 276 279 279 272 270 269 268 272 273 275 278 281
185 188 186 199 217 226 237 240 239 242 248 253 268 277 247 248 255 259 261 264 264 264 268 270 272 274 271 269 271 274 274 275 278 280 281 276 267 265 269 271 276 279 279
184 194 208 217 223 239 251 251 245 245 250 250 249 256 255 256 262 265 267 272 275 273 274 270 272 277 278 272 267 261 263 268 270 268 269 271 272 272 269 266 269 274 275
195 202 211 227 235 243 251 254 252 249 248 251 252 252 253 258 269 273 277 281 277 272 272 271 268 270 276 278 273 265 264 272 273 261 256 257 263 267 270 271 270 269 270
204 211 220 230 239 248 252 255 256 256 254 252 254 256 260 266 274 279 281 280 277 273 273 272 269 269 272 273 274 272 276 277 272 270 258 254 257 263 267 269 273 277 275
218 225 236 246 252 253 251 254 255 249 248 251 250 250 255 261 268 276 281 282 276 273 272 272 270 269 271 269 272 277 276 276 275 272 261 254 253 258 264 268 274 275 280
Height
1509 1510 1511 1512 1512 1513 1513 1513 1513 1513 1512 1512 1511 1510 1510 1509 1509 1508 1508 1508 1508 1508 1508 1508 1508 1508 1508 1508 1509 1509 1509 1510 1509 1509 1510 1510 1510 1510 1511 1511 1511 1511 1511
1508 1509 1510 1511 1511 1512 1512 1512 1512 1512 1511 1511 1510 1509 1509 1508 1507 1507 1507 1507 1506 1506 1506 1506 1506 1506 1506 1506 1507 1507 1507 1507 1507 1507 1508 1508 1508 1508 1508 1509 1509 1509 1509
1506 1508 1509 1510 1510 1510 1511 1511 1511 1511 1510 1510 1509 1508 1507 1507 1506 1506 1506 1506 1505 1505 1504 1504 1504 1504 1504 1504 1505 1505 1505 1505 1505 1505 1505 1506 1506 1506 1506 1506 1507 1507 1507
1505 1506 1507 1508 1509 1509 1510 1510 1510 1510 1509 1509 1508 1508 1507 1506 1506 1505 1505 1504 1504 1503 1502 1502 1502 1502 1502 1503 1503 1503 1503 1503 1503 1503 1503 1503 1503 1504 1504 1504 1504 1504 1504
1503 1505 1506 1507 1508 1508 1509 1509 1509 1509 1508 1508 1507 1507 1506 1505 1504 1504 1503 1502 1502 1501 1501 1500 1500 1501 1501 1501 1501 1500 1501 1501 1501 1501 1501 1501 1501 1502 1502 1502 1502 1502 1502
1502 1503 1505 1505 1507 1507 1508 1508 1508 1508 1507 1507 1506 1506 1505 1504 1503 1502 1502 1500 1500 1499 1499 1499 1499 1498 1498 1498 1498 1498 1499 1499 1498 1498 1498 1498 1499 1499 1499 1499 1499 1499 1499
1501 1503 1504 1504 1505 1506 1507 1507 1507 1506 1506 1505 1505 1504 1503 1502 1501 1500 1500 1499 1498 1497 1496 1496 1496 1496 1496 1496 1496 1496 1496 1496 1496 1497 1496 1496 1496 1497 1497 1497 1497 1497 1497
1501 1502 1503 1503 1503 1504 1505 1505 1505 1505 1505 1504 1503 1502 1501 1500 1499 1498 1497 1496 1495 1494 1494 1494 1494 1494 1494 1494 1494 1494 1493 1494 1494 1494 1494 1494 1494 1494 1494 1494 1494 1494 1494
1500 1501 1501 1502 1502 1502 1503 1503 1503 1503 1503 1502 1501 1500 1499 1497 1496 1495 1495 1494 1493 1492 1492 1491 1491 1492 1492 1492 1491 1491 1491 1491 1491 1491 1491 1491 1491 1491 1491 1492 1491 1491 1490
1499 1499 1500 1501 1501 1501 1501 1501 1501 1501 1500 1500 1499 1498 1497 1496 1494 1493 1492 1492 1491 1491 1490 1490 1490 1489 1489 1489 1489 1489 1489 1489 1489 1489 1488 1488 1488 1488 1488 1489 1489 1488 1488
1497 1498 1498 1499 1499 1500 1499 1499 1499 1499 1499 1498 1497 1496 1495 1494 1493 1492 1491 1490 1489 1489 1488 1488 1487 1487 1487 1487 1487 1487 1486 1486 1486 1486 1486 1485 1485 1485 1485 1486 1486 1485 1485
1496 1496 1497 1498 1498 1497 1498 1498 1498 1498 1497 1496 1495 1494 1493 1492 1491 1490 1490 1489 1488 1488 1487 1486 1485 1485 1485 1484 1484 1484 1484 1484 1484 1483 1483 1483 1482 1483 1483 1483 1482 1482 1482
1494 1495 1495 1496 1496 1496 1496 1496 1496 1496 1495 1495 1494 1493 1492 1491 1490 1489 1488 1488 1487 1486 1485 1485 1484 1483 1483 1482 1482 1482 1482 1482 1481 1481 1480 1480 1480 1480 1479 1479 1479 1479 1479
1493 1493 1494 1494 1494 1495 1495 1495 1494 1494 1494 1493 1492 1491 1490 1489 1489 1488 1487 1486 1486 1485 1484 1483 1483 1482 1481 1481 1480 1480 1480 1479 1479 1479 1478 1478 1477 1477 1476 1476 1476 1475 1475
1492 1492 1493 1493 1493 1493 1493 1493 1493 1493 1493 1492 1491 1490 1489 1488 1488 1487 1486 1485 1484 1483 1482 1481 1481 1480 1480 1479 1479 1478 1478 1477 1477 1476 1476 1476 1475 1474 1474 1473 1473 1472 1471
1490 1491 1491 1492 1492 1492 1492 1492 1492 1492 1492 1491 1490 1489 1488 1488 1486 1485 1485 1484 1482 1482 1481 1480 1479 1478 1478 1478 1477 1476 1476 1475 1475 1474 1474 1473 1472 1472 1471 1470 1470 1469 1468
1489 1490 1490 1491 1491 1491 1491 1490 1490 1490 1490 1489 1489 1488 1487 1486 1485 1484 1483 1482 1480 1479 1479 1478 1477 1476 1476 1475 1475 1474 1474 1473 1473 1472 1471 1471 1470 1469 1468 1467 1466 1465 1464
1488 1488 1489 1489 1489 1490 1489 1489 1488 1488 1487 1487 1486 1486 1485 1484 1483 1482 1481 1480 1478 1477 1476 1475 1475 1474 1473 1472 1472 1471 1471 1470 1470 1469 1468 1468 1467 1466 1465 1464 1463 1462 1461
1487 1486 1487 1487 1487 1487 1487 1486 1486 1485 1485 1484 1484 1483 1483 1482 1481 1480 1479 1477 1476 1475 1474 1473 1472 1471 1471 1470 1469 1469 1468 1467 1467 1466 1465 1464 1464 1463 1462 1461 1460 1459 1458
1485 1485 1485 1485 1485 1484 1484 1484 1483 1483 1482 1481 1481 1480 1479 1479 1478 1477 1476 1475 1473 1472 1471 1470 1470 1469 1468 1467 1466 1465 1465 1464 1463 1463 1462 1461 1460 1460 1459 1458 1457 1456 1455
1483 1483 1483 1483 1482 1482 1481 1481 1480 1480 1479 1478 1477 1477 1476 1475 1474 1473 1472 1471 1470 1469 1468 1467 1466 1466 1465 1464 1463 1462 1461 1460 1459 1459 1458 1457 1457 1456 1456 1455 1454 1453 1452
1480 1480 1480 1480 1480 1479 1479 1478 1477 1477 1476 1475 1474 1474 1473 1472 1471 1470 1469 1468 1467 1466 1465 1464 1463 1462 1461 1460 1460 1459 1457 1456 1456 1455 1454 1453 1453 1453 1452 1451 1450 1449 1448
1478 1478 1478 1477 1477 1476 1476 1475 1474 1473 1472 1472 1471 1470 1469 1468 1467 1466 1465 1464 1463 1462 1461 1460 1459 1458 1457 1457 1456 1455 1454 1453 1452 1451 1450 1449 1449 1448 1448 1447 1446 1445 1444
1475 1475 1475 1474 1474 1473 1472 1471 1470 1470 1469 1468 1467 1466 1465 1464 1463 1462 1461 1460 1459 1458 1457 1456 1455 1454 1453 1452 1451 1450 1450 1449 1448 1447 1446 1446 1445 1444 1443 1442 1441 1440 1440
1472 1472 1472 1471 1470 1469 1468 1467 1467 1466 1465 1464 1463 1462 1461 1460 1459 1458 1456 1455 1454 1454 1453 1452 1451 1450 1449 1448 1447 1446 1445 1445 1444 1443 1442 1441 1441 1440 1439 1438 1437 1436 1435
1469 1469 1468 1467 1467 1466 1465 1464 1463 1462 1461 1460 1459 1458 1457 1456 1455 1454 1452 1451 1450 1450 1449 1448 1447 1446 1445 1444 1443 1442 1441 1440 1439 1439 1438 1437 1436 1435 1435 1434 1433 1432 1431